Regional Weather Roundup
Issued by NWS

Home | Current Version | Previous Version | Graphics & Text | Print | Product List | Glossary Off
Versions: 1 2 3 4 5 6 7 8 9 10 11 12 13 14 15 16 17 18 19 20 21 22 23 24 25 26 27 28 29 30 31 32 33 34 35 36 37 38 39 40 41 42 43 44 45 46 47 48 49 50

000
ASUS43 KTOP 301259
RWRKS

WEATHER ROUNDUP FOR KANSAS
NATIONAL WEATHER SERVICE GOODLAND KS
800 AM CDT SAT AUG 30 2014

NOTE:  "FAIR" INDICATES FEW OR NO CLOUDS BELOW 12,000 FEET WITH NO
SIGNIFICANT WEATHER AND/OR OBSTRUCTIONS TO VISIBILITY.

KSZ001>006-013>018-027>032-041>047-301400-
NORTHWEST KANSAS

CITY           SKY/WX    TMP DP  RH WIND       PRES   REMARKS
GOODLAND       CLEAR     57  55  93 W6        30.06R
HAYS           PTCLDY    63  55  77 CALM      30.00S
HILL CITY      CLEAR     62  59  90 CALM      30.01R
RUSSELL        SUNNY     64  59  83 N5        29.98S
$$

KSZ061>065-074>080-084>089-301400-
SOUTHWEST KANSAS

CITY           SKY/WX    TMP DP  RH WIND       PRES   REMARKS
DODGE CITY     PTCLDY    66  53  63 SW3       30.03R
ELKHART          N/A     65  53  65 W3          N/A
GARDEN CITY    PTCLDY    59  54  83 W5        30.04S
GREAT BEND     MOSUNNY   63  55  77 NW3       29.99S
LIBERAL        MOCLDY    64  54  68 N3        30.06S
$$

KSZ066>073-081>083-090>101-301400-
SOUTHEAST KANSAS

CITY           SKY/WX    TMP DP  RH WIND       PRES   REMARKS
CHANUTE        MOSUNNY   71  70  96 S3        29.95R FOG
COFFEYVILLE    SUNNY     74  70  87 S7        29.94R
HUTCHINSON     SUNNY     66  63  90 NW3       29.97R
NEWTON         SUNNY     66  61  82 N3        29.99S
PARSONS        SUNNY     72  70  93 S3        29.96R
WICHITA INTL   MOSUNNY   67  65  93 CALM      29.95S FOG
WICHITA JABRA  SUNNY     68  66  93 N3        29.96R FOG
WINFIELD       SUNNY     68  67  96 E3        29.96R
$$

KSZ007>012-019>026-033>040-048>060-102>105-301400-
NORTHEAST KANSAS

CITY           SKY/WX    TMP DP  RH WIND       PRES   REMARKS
CONCORDIA      SUNNY     64  63  96 W3        29.97R
EMPORIA        SUNNY     67  66  97 CALM      29.95R
LAWRENCE       SUNNY     71  67  87 NW5       29.93R
MANHATTAN      SUNNY     67  64  90 CALM      29.95R
OLATHE IND     SUNNY     70  67  90 SW5       29.95R
OLATHE EXE     SUNNY     69  66  90 SW6       29.93R
SALINA         SUNNY     66  62  87 NW5       29.97R
TOPEKA BILLARD SUNNY     70  68  93 W3        29.94R
TOPEKA FORBES  SUNNY     69  67  93 NW5       29.94R
$$



USA.gov is the U.S. government's official web portal to all federal, state and local government web resources and services.